TimeEST,TemperatureF,Dew PointF,Humidity,Sea Level PressureIn,VisibilityMPH,Wind Direction,Wind SpeedMPH,Gust SpeedMPH,PrecipitationIn,Events,Conditions,WindDirDegrees,DateUTC
12:15 AM,8.6,6.8,92,29.61,10.0,Calm,Calm,-,N/A,,Partly Cloudy,0,2013-12-16 05:15:00
12:35 AM,6.8,3.2,85,29.61,10.0,SW,3.5,-,N/A,,Clear,230,2013-12-16 05:35:00
12:55 AM,8.6,6.8,92,29.61,10.0,SW,3.5,-,N/A,,Clear,220,2013-12-16 05:55:00
1:15 AM,8.6,6.8,92,29.61,10.0,Calm,Calm,-,N/A,,Clear,0,2013-12-16 06:15:00
1:35 AM,8.6,6.8,92,29.62,10.0,Calm,Calm,-,N/A,,Clear,0,2013-12-16 06:35:00
1:55 AM,8.6,6.8,92,29.64,10.0,SSW,5.8,-,N/A,,Clear,200,2013-12-16 06:55:00
2:15 AM,6.8,1.4,79,29.64,10.0,West,3.5,-,N/A,,Partly Cloudy,270,2013-12-16 07:15:00
2:35 AM,3.2,3.2,100,29.65,10.0,West,3.5,-,N/A,,Partly Cloudy,270,2013-12-16 07:35:00
2:55 AM,10.4,10.4,100,29.65,10.0,WSW,4.6,-,N/A,,Clear,250,2013-12-16 07:55:00
3:15 AM,6.8,1.4,79,29.65,10.0,SSW,3.5,-,N/A,,Clear,200,2013-12-16 08:15:00
3:35 AM,3.2,-0.4,85,29.66,10.0,Calm,Calm,-,N/A,,Clear,0,2013-12-16 08:35:00
3:55 AM,5.0,3.2,92,29.66,10.0,WNW,3.5,-,N/A,,Clear,300,2013-12-16 08:55:00
4:15 AM,1.4,-0.4,92,29.66,10.0,SSW,3.5,-,N/A,,Clear,200,2013-12-16 09:15:00
4:35 AM,1.4,-0.4,92,29.67,10.0,Calm,Calm,-,N/A,,Clear,0,2013-12-16 09:35:00
4:55 AM,3.2,3.2,100,29.67,10.0,Calm,Calm,-,N/A,,Clear,0,2013-12-16 09:55:00
5:15 AM,5.0,1.4,85,29.68,10.0,Calm,Calm,-,N/A,,Clear,0,2013-12-16 10:15:00
5:35 AM,-0.4,-5.8,78,29.69,10.0,Calm,Calm,-,N/A,,Clear,0,2013-12-16 10:35:00
5:55 AM,1.4,-0.4,92,29.70,10.0,Calm,Calm,-,N/A,,Clear,0,2013-12-16 10:55:00
6:15 AM,1.4,-2.2,85,29.71,10.0,Calm,Calm,-,N/A,,Clear,0,2013-12-16 11:15:00
6:35 AM,-2.2,-5.8,85,29.71,4.0,NE,5.8,-,N/A,,Clear,40,2013-12-16 11:35:00
6:55 AM,1.4,-2.2,85,29.72,1.8,Calm,Calm,-,N/A,,Clear,0,2013-12-16 11:55:00
7:15 AM,3.2,1.4,92,29.73,1.5,Calm,Calm,-,N/A,,Clear,0,2013-12-16 12:15:00
7:35 AM,3.2,-0.4,85,29.74,6.0,NNE,4.6,-,N/A,,Clear,20,2013-12-16 12:35:00
7:55 AM,1.4,-0.4,92,29.74,10.0,Calm,Calm,-,N/A,,Clear,0,2013-12-16 12:55:00
8:15 AM,8.6,8.6,100,29.76,10.0,NE,3.5,-,N/A,,Clear,40,2013-12-16 13:15:00
8:35 AM,10.4,6.8,85,29.77,10.0,NNW,3.5,-,N/A,,Clear,330,2013-12-16 13:35:00
8:55 AM,8.6,3.2,79,29.78,10.0,Calm,Calm,-,N/A,,Clear,0,2013-12-16 13:55:00
9:15 AM,14.0,14.0,100,29.80,10.0,West,6.9,-,N/A,,Clear,270,2013-12-16 14:15:00
9:35 AM,17.6,8.6,68,29.80,10.0,West,8.1,-,N/A,,Clear,270,2013-12-16 14:35:00
9:55 AM,17.6,6.8,63,29.80,10.0,West,8.1,-,N/A,,Clear,260,2013-12-16 14:55:00
10:15 AM,19.4,5.0,54,29.81,8.0,WNW,16.1,21.9,N/A,,Clear,290,2013-12-16 15:15:00
10:35 AM,17.6,1.4,49,29.81,2.0,WNW,15.0,23.0,N/A,,Clear,290,2013-12-16 15:35:00
10:55 AM,19.4,3.2,49,29.81,10.0,WNW,13.8,17.3,N/A,,Clear,290,2013-12-16 15:55:00
11:15 AM,19.4,1.4,46,29.81,10.0,West,10.4,18.4,N/A,,Clear,270,2013-12-16 16:15:00
11:35 AM,19.4,1.4,46,29.82,10.0,West,16.1,23.0,N/A,,Clear,260,2013-12-16 16:35:00
11:55 AM,19.4,-0.4,42,29.82,10.0,West,17.3,23.0,N/A,,Clear,260,2013-12-16 16:55:00
12:15 PM,19.4,-2.2,39,29.82,10.0,West,15.0,29.9,N/A,,Clear,270,2013-12-16 17:15:00
12:35 PM,19.4,-2.2,39,29.82,10.0,West,16.1,19.6,N/A,,Clear,280,2013-12-16 17:35:00
12:55 PM,19.4,-2.2,39,29.81,10.0,West,11.5,23.0,N/A,,Clear,260,2013-12-16 17:55:00
1:15 PM,19.4,-2.2,39,29.82,10.0,West,16.1,19.6,N/A,,Clear,260,2013-12-16 18:15:00
1:35 PM,19.4,-2.2,39,29.82,10.0,West,16.1,21.9,N/A,,Clear,260,2013-12-16 18:35:00
1:55 PM,19.4,-2.2,39,29.83,10.0,West,16.1,26.5,N/A,,Clear,270,2013-12-16 18:55:00
2:15 PM,17.6,-4.0,38,29.84,10.0,West,13.8,21.9,N/A,,Clear,270,2013-12-16 19:15:00
2:35 PM,17.6,-4.0,38,29.85,10.0,West,18.4,27.6,N/A,,Clear,280,2013-12-16 19:35:00
2:55 PM,17.6,-4.0,38,29.86,10.0,West,12.7,25.3,N/A,,Clear,260,2013-12-16 19:55:00
3:15 PM,17.6,-5.8,35,29.88,10.0,WNW,10.4,-,N/A,,Clear,300,2013-12-16 20:15:00
3:35 PM,15.8,-2.2,45,29.89,10.0,WNW,10.4,-,N/A,,Clear,290,2013-12-16 20:35:00
3:55 PM,15.8,-2.2,45,29.90,10.0,WNW,13.8,23.0,N/A,,Clear,290,2013-12-16 20:55:00
4:15 PM,14.0,-4.0,45,29.92,10.0,WNW,12.7,-,N/A,,Clear,290,2013-12-16 21:15:00
4:35 PM,14.0,-5.8,41,29.94,10.0,WNW,9.2,-,N/A,,Clear,300,2013-12-16 21:35:00
4:55 PM,12.2,-5.8,45,29.96,10.0,West,11.5,18.4,N/A,,Clear,280,2013-12-16 21:55:00
5:15 PM,12.2,-7.6,41,29.95,10.0,WNW,12.7,20.7,N/A,,Clear,300,2013-12-16 22:15:00
5:35 PM,10.4,-7.6,44,29.97,10.0,NW,10.4,17.3,N/A,,Clear,310,2013-12-16 22:35:00
5:55 PM,10.4,-7.6,44,29.99,10.0,WNW,13.8,21.9,N/A,,Clear,290,2013-12-16 22:55:00
6:15 PM,10.4,-7.6,44,30.00,10.0,WNW,10.4,-,N/A,,Clear,300,2013-12-16 23:15:00
6:35 PM,8.6,-7.6,48,30.02,10.0,NW,8.1,-,N/A,,Clear,320,2013-12-16 23:35:00
6:55 PM,8.6,-7.6,48,30.03,10.0,WNW,10.4,-,N/A,,Clear,300,2013-12-16 23:55:00
7:15 PM,6.8,-7.6,52,30.05,10.0,NW,9.2,-,N/A,,Clear,320,2013-12-17 00:15:00
7:35 PM,6.8,-7.6,52,30.05,10.0,WNW,12.7,16.1,N/A,,Clear,300,2013-12-17 00:35:00
7:55 PM,6.8,-7.6,52,30.06,10.0,NW,12.7,18.4,N/A,,Clear,310,2013-12-17 00:55:00
8:15 PM,5.0,-9.4,52,30.06,10.0,WNW,8.1,-,N/A,,Clear,290,2013-12-17 01:15:00
8:35 PM,5.0,-9.4,52,30.07,10.0,West,5.8,-,N/A,,Clear,270,2013-12-17 01:35:00
8:55 PM,3.2,-11.2,51,30.08,10.0,NNW,5.8,-,N/A,,Clear,340,2013-12-17 01:55:00
9:15 PM,3.2,-11.2,51,30.08,10.0,NW,3.5,-,N/A,,Clear,310,2013-12-17 02:15:00
9:35 PM,3.2,-11.2,51,30.10,10.0,WNW,5.8,-,N/A,,Clear,290,2013-12-17 02:35:00
9:55 PM,1.4,-11.2,56,30.12,10.0,WNW,5.8,-,N/A,,Clear,290,2013-12-17 02:55:00
10:15 PM,-0.4,-14.8,51,30.13,10.0,West,3.5,-,N/A,,Clear,270,2013-12-17 03:15:00
10:35 PM,1.4,-9.4,61,30.13,10.0,WNW,3.5,-,N/A,,Clear,300,2013-12-17 03:35:00
10:55 PM,-0.4,-14.8,51,30.15,10.0,Calm,Calm,-,N/A,,Clear,0,2013-12-17 03:55:00
11:15 PM,-0.4,-11.2,60,30.15,10.0,Calm,Calm,-,N/A,,Clear,0,2013-12-17 04:15:00
11:35 PM,-0.4,-11.2,60,30.15,10.0,SSE,3.5,-,N/A,,Clear,160,2013-12-17 04:35:00
11:55 PM,-2.2,-14.8,55,30.15,10.0,Calm,Calm,-,N/A,,Clear,0,2013-12-17 04:55:00